Starlink 3576

operational
NORAD ID: 51883 Int'l Des: 2022-022 Owner: SPXS Country: US Constellation: starlink
LEOCIRCULAR

关于 Starlink 3576

正在加载描述...

实时位置

正在加载3D地球...

即将过境

高度历史

Altitude vs Time

uPlot chart will show altitude changes over time

两行轨道根数

1 51883U 22022AH 25258.77836162 .00000578 00000-0 54417-4 0 9990
2 51883 53.2180 64.5107 0001439 90.1197 269.9960 15.08838860196838
Epoch: Sep 15, 2025 • Age: 15 hours

当前状态

高度 540.9 km
速度 7.60 km/s
星下点 30.44°N, 76.07°E
发射日期 Mar 3, 2022
运行时间 3.5 years
类型 internet

技术详情

分类 Payload
质量 297.00 kg
干质量 275.00 kg
总质量 297.00 kg
长度 0.20 m
直径 2.80 m
跨度 9.00 m
形状 Box + pan
制造商 SPXS
平台类型 Starlink
阶段状态 In Orbit
所有者/国家 SPXS/US

大型星座

Loading constellations...